Theta_e
309 309 309 309 309 309 309 308 307 310 311 313 313 312 313 313 312 309 309 311 320 321 317 318 314 311 310 314 318 319 323 326 329
309 309 309 310 310 310 309 309 308 308 309 309 310 310 310 310 309 309 315 320 324 322 321 320 321 319 319 317 319 316 314 318 323
309 309 309 309 309 309 309 309 310 310 310 311 311 312 309 308 309 318 323 323 322 323 323 323 322 322 322 322 320 316 315 318 317
309 309 309 309 309 309 309 309 309 310 311 312 313 314 315 315 320 322 322 321 323 322 322 317 323 322 321 319 320 323 321 314 320
309 309 309 309 309 309 308 308 309 310 311 313 316 319 320 322 321 321 322 327 324 325 323 320 317 315 320 322 322 320 323 324 321
309 309 309 308 308 308 308 308 309 311 313 315 319 320 320 320 318 315 323 324 324 320 318 318 319 316 320 320 318 321 321 319 310
309 309 308 308 308 308 309 309 310 310 312 315 320 319 316 317 322 321 316 321 321 322 319 319 320 323 321 319 316 318 313 317 320
309 308 308 308 308 308 308 309 310 311 311 313 317 317 317 318 321 320 322 324 324 322 320 318 323 320 317 317 322 321 322 321 322
308 307 307 308 308 309 309 309 310 311 313 313 310 315 314 314 314 319 321 322 324 324 321 320 314 312 321 323 321 320 320 319 318
308 307 307 307 308 310 310 310 310 310 312 312 308 309 311 311 310 312 317 321 323 325 324 323 323 323 321 320 318 318 316 315 313
308 308 307 307 308 310 310 310 310 311 311 310 307 307 307 307 307 307 309 318 322 324 323 323 322 321 319 318 318 315 315 314 313
308 308 307 307 308 309 311 311 311 310 310 309 308 307 305 304 305 304 304 306 319 322 323 322 320 318 316 316 317 316 314 314 313
308 308 308 307 308 309 310 310 311 309 308 308 308 307 306 307 307 306 306 305 310 316 319 318 318 316 316 315 315 315 314 314 314
309 308 307 307 307 308 310 310 310 309 309 309 307 307 307 306 305 305 305 304 304 310 315 314 314 315 314 314 313 311 311 312 313
309 308 308 307 307 307 309 310 311 310 309 309 308 307 306 306 305 304 304 305 305 304 304 306 309 312 310 314 314 313 311 311 312
310 308 308 307 307 307 309 311 311 311 310 309 308 308 308 307 306 303 304 303 304 305 304 303 303 303 303 303 304 308 310 312 311
309 308 308 307 307 307 307 309 311 311 310 309 309 309 308 309 308 304 303 303 303 304 304 304 303 302 302 302 302 302 303 308 309
309 309 308 307 307 307 307 307 308 310 310 310 308 308 308 309 309 304 303 303 302 303 304 304 303 303 302 302 302 302 303 303 302
309 309 308 307 307 306 307 307 308 308 309 310 308 308 307 309 307 305 304 303 302 302 304 304 303 303 303 303 303 303 303 302 298
309 309 308 308 307 306 306 306 307 307 308 308 308 308 310 307 307 305 304 303 303 303 304 304 304 303 303 304 304 303 303 301 297
Wind_Speed
17 16 16 15 15 15 15 16 16 14 13 12 10 8 8 6 5 7 9 10 10 11 8 9 8 7 6 5 4 4 4 6 11
17 16 16 16 16 16 16 16 16 14 11 10 10 9 8 7 7 9 13 14 13 12 12 12 13 13 11 9 8 6 5 5 6
17 16 16 16 15 15 16 16 15 14 12 10 10 10 11 12 15 18 19 14 13 14 15 13 12 11 12 13 12 9 9 11 6
16 15 15 15 15 15 16 16 14 13 12 12 13 14 16 19 21 18 17 14 14 15 13 14 14 13 13 11 13 16 15 13 13
16 16 16 16 16 16 17 17 15 14 13 13 16 16 16 20 18 17 18 13 18 18 12 13 12 10 14 15 16 15 17 14 11
16 16 17 17 17 18 18 17 16 15 15 14 15 15 16 16 14 18 19 17 13 12 12 14 15 16 14 17 14 17 15 11 14
16 17 17 18 19 20 19 17 16 14 15 15 15 13 11 14 20 17 15 21 16 16 15 15 18 18 16 15 15 19 19 21 19
17 16 17 18 18 19 18 16 16 14 13 14 14 12 14 16 19 20 18 18 16 14 15 16 16 15 12 17 19 19 19 17 15
17 16 17 18 18 18 17 16 16 15 13 12 14 14 13 12 12 17 20 19 17 15 15 18 17 17 19 19 16 14 12 11 9
18 17 17 17 17 17 17 16 16 15 13 12 12 14 12 11 12 14 20 20 18 17 16 17 20 20 16 12 10 10 8 8 7
18 18 17 17 17 17 16 16 17 16 13 13 13 13 12 11 10 11 12 19 20 19 17 15 13 10 7 11 11 9 13 14 14
17 17 17 18 19 18 17 16 16 16 15 14 14 13 12 12 11 11 11 13 20 20 20 16 11 8 9 10 15 15 15 15 16
17 18 18 19 19 19 17 16 16 16 15 16 15 13 13 12 11 11 11 12 13 16 17 15 13 13 13 14 16 14 15 14 15
18 18 19 20 21 20 19 19 16 18 18 18 16 14 12 11 10 10 11 11 12 12 11 8 12 14 12 14 13 14 14 14 13
19 19 19 20 21 22 22 20 19 17 18 19 18 15 12 10 9 9 10 11 11 11 11 10 11 13 12 15 14 14 11 11 10
21 21 21 21 22 22 23 23 22 22 20 22 19 15 11 9 8 8 8 9 10 10 11 10 8 6 5 5 6 9 10 9 8
23 23 22 23 24 25 26 26 27 24 23 22 22 14 13 12 9 8 8 8 9 9 10 9 8 7 5 3 2 2 3 6 7
26 25 24 24 26 27 28 30 29 29 28 25 13 10 8 19 14 11 10 8 8 8 9 8 7 5 3 2 1 2 4 6 8
28 26 26 26 27 28 27 30 30 29 30 30 24 13 12 14 15 16 14 11 9 9 9 7 6 5 4 3 3 4 5 8 10
29 28 28 28 27 27 28 31 31 29 29 31 32 19 13 17 15 23 23 17 13 11 9 8 7 6 6 6 6 7 8 11 14
Wind_Direction
134 133 131 132 131 129 130 133 136 139 140 136 132 127 123 119 104 102 106 99 84 81 83 83 85 89 95 116 100 135 138 108 83
137 134 134 134 133 133 134 136 138 142 136 129 128 127 124 120 117 110 99 91 93 83 80 77 72 73 74 81 94 84 120 143 128
139 138 137 136 135 135 136 139 141 137 129 123 113 107 112 114 111 98 92 100 92 92 86 85 81 78 80 75 69 65 77 76 109
143 141 139 137 137 137 140 143 145 134 128 122 115 112 112 110 102 101 98 96 92 93 78 72 92 88 78 86 78 78 65 72 71
148 145 142 140 139 139 143 149 143 138 128 117 120 115 108 109 111 115 100 98 88 86 87 71 74 91 74 88 89 97 85 88 76
151 148 145 144 143 143 149 149 142 137 128 121 125 120 117 124 120 112 107 99 108 112 93 69 76 94 89 83 91 82 102 98 73
153 150 148 147 146 146 149 150 145 137 129 127 133 128 116 119 106 105 102 91 95 98 81 78 83 90 86 85 81 82 80 81 78
156 157 154 152 149 151 154 152 141 138 133 133 146 138 130 120 121 114 110 97 94 89 87 91 99 104 94 91 86 83 85 90 96
158 158 157 157 157 159 159 154 146 141 134 133 147 149 143 133 124 120 119 105 98 101 89 93 96 100 97 98 105 104 89 90 79
164 163 164 165 163 165 166 159 152 146 141 134 141 151 149 139 126 120 131 125 106 103 101 101 102 105 109 109 100 91 77 72 62
170 168 168 168 168 164 167 164 154 148 149 140 140 146 146 144 139 133 125 139 123 109 112 113 116 113 108 94 84 74 74 71 68
177 174 171 172 170 168 170 168 162 156 152 148 142 139 135 132 130 134 135 136 147 130 117 117 117 100 91 94 88 81 78 76 70
185 180 177 175 175 175 177 179 170 164 160 151 145 142 139 137 134 131 134 133 156 160 148 134 110 99 99 98 92 90 82 79 73
192 186 184 182 180 180 182 178 181 165 158 150 144 141 140 140 138 137 134 134 139 162 173 168 135 120 111 96 89 84 78 75 68
195 192 193 189 186 185 184 184 179 176 166 154 146 143 144 140 139 142 141 140 139 145 152 157 153 142 120 111 96 84 75 66 63
202 199 198 196 195 193 189 186 183 179 178 165 152 146 150 151 149 152 152 150 151 148 151 154 158 161 149 130 110 90 77 60 60
209 207 205 203 195 193 196 197 186 190 187 181 162 151 164 172 171 165 165 163 160 158 158 157 160 163 156 142 98 70 53 62 48
214 213 212 208 206 203 202 201 202 194 194 196 181 163 185 176 181 180 181 175 173 177 176 169 170 175 182 194 292 327 342 350 359
221 219 217 215 213 210 208 209 210 207 202 199 202 202 194 174 178 188 188 186 184 190 192 193 193 197 218 254 286 306 330 343 342
223 223 222 220 219 216 214 213 214 215 215 211 204 206 199 193 184 184 187 188 186 189 197 207 218 227 245 267 290 305 317 327 332